User: anonymous   Login
Location: Columbia
(38.9520°N, 92.3340°W)
Time: 11:47:47
(UTC-05:00)
Language:

CZ-4B R/B - Orbit

View from above orbital plane
View from above orbital plane
View from above satellite
View from above satellite

Ground track
Ground track

The orbit data is extracted from the following two-line orbital elements,

1 29093U 06015B   15180.84314749  .00002917  00000-0  88805-4 0  9992
2 29093 097.4950 268.0364 0077867 008.8820 086.4304 15.31898398507247
Epoch (UTC): 29 June 2015 20:14:07
Eccentricity: 0.0077867
inclination: 97.4950°
perigee height: 417 km
apogee height: 523 km
right ascension of ascending node: 268.0364°
argument of perigee: 8.8820°
revolutions per day: 15.31898398
mean anomaly at epoch: 86.4304°
orbit number at epoch: 50724

The dashed part of the orbit path shows where the satellite is in the earth's shadow,  

DLR